Location: Unspecified
(0.0000°N, 0.0000°E)
Time: 03:41:11
(UTC+00:00)

COSMO-SKYMED 1 - Visible Passes

Search period start: 28 June 2017 00:00
Search period end: 08 July 2017 00:00
Orbit: 621 x 623 km, 97.9° (Epoch: 26 June)

Date Brightness Start Highest point End Pass type
(mag) Time Alt. Az. Time Alt. Az. Time Alt. Az.
30 Jun 5.7 04:50:21 10° ESE 04:53:00 16° ENE 04:55:39 10° NE visible
30 Jun 5.8 18:35:14 10° NW 18:37:49 16° WNW 18:40:24 10° WSW visible
01 Jul 4.9 05:07:15 10° SE 05:10:58 28° ENE 05:14:41 10° NNE visible
02 Jul 3.6 05:24:43 10° SSE 05:28:56 51° E 05:33:08 10° N visible
05 Jul 5.9 04:44:57 10° ESE 04:46:57 13° ENE 04:48:58 10° NE visible
05 Jul 5.7 18:28:42 10° NNW 18:31:46 19° WNW 18:34:50 10° WSW visible
06 Jul 5.2 05:01:28 10° SE 05:04:55 23° ENE 05:08:21 10° NNE visible
06 Jul 6.4 18:49:01 10° WNW 18:49:43 10° WNW 18:50:25 10° W visible
07 Jul 4.0 05:18:47 10° SSE 05:22:52 41° ENE 05:26:58 10° N visible
